Dewpoint
23 19 17 18 20 19 16 14 12 13 13 15 16 15 15 16 17 21 25 26 27 27 25 24 30 36 46 53 58 61 62 63 62 61 61 61 61 61 62 63 63 63 64 64
21 19 18 15 15 15 16 16 15 15 16 22 22 21 20 20 18 19 20 25 27 28 26 25 28 38 50 54 58 61 61 62 61 59 59 59 61 61 61 62 63 62 62 63
23 21 25 22 19 17 17 17 17 18 21 21 21 19 20 21 24 23 22 21 23 28 28 25 26 37 51 53 58 59 61 61 61 60 59 60 61 61 60 61 62 61 62 62
21 21 20 18 20 19 18 19 22 24 22 16 19 16 18 17 18 21 23 25 25 28 28 26 25 35 49 53 58 59 60 60 60 60 59 59 59 57 59 59 61 61 61 62
18 20 24 22 20 22 22 24 27 25 21 19 17 16 15 18 19 21 24 24 25 28 29 27 26 28 45 53 57 59 60 59 59 59 59 57 56 57 58 58 60 61 61 61
21 21 22 24 25 27 24 26 26 23 19 18 19 16 13 17 25 27 28 29 27 28 29 28 26 27 41 51 58 59 59 58 59 59 58 58 57 57 57 58 59 60 60 59
22 22 24 28 24 26 26 25 15 10 18 19 18 19 18 22 32 33 34 34 39 39 39 35 31 31 39 51 57 59 58 57 59 59 58 57 57 59 58 58 59 59 58 58
11 11 18 23 26 22 22 23 17 13 14 20 25 19 25 33 34 35 37 40 42 45 48 43 36 37 44 51 57 58 57 57 58 58 58 57 57 57 57 58 57 59 59 59
13 10 19 24 26 25 24 23 22 22 22 19 16 16 28 35 35 36 39 41 43 45 48 48 40 46 48 54 59 59 57 57 57 57 57 56 57 57 57 58 59 60 60 60
19 15 19 24 27 27 26 30 29 28 22 17 15 17 35 36 37 39 41 41 43 44 45 50 45 48 50 57 57 58 57 57 57 57 56 57 57 57 58 59 58 57 58 58
29 21 16 19 24 21 27 28 30 31 29 23 22 32 39 37 38 38 38 40 41 41 42 46 50 52 55 56 56 58 57 57 57 57 56 56 57 57 58 58 57 57 58 58
34 35 20 14 18 21 21 26 28 29 23 28 29 31 39 39 38 38 38 38 38 39 40 41 45 48 54 55 56 56 56 55 56 56 56 57 56 56 57 56 56 57 57 57
34 30 23 19 20 21 21 22 26 32 34 28 28 32 40 39 39 39 37 37 37 37 37 38 40 42 45 47 51 53 56 56 57 56 56 56 56 57 56 56 56 57 56 57
33 27 27 20 23 31 31 22 28 31 30 27 27 23 37 37 39 40 37 37 35 34 35 35 36 38 40 42 43 44 46 51 54 53 52 53 54 55 55 55 57 58 57 56
32 26 24 25 21 25 29 33 26 28 27 24 20 16 20 31 38 41 37 36 35 34 33 33 34 35 36 38 39 40 41 43 45 45 45 45 46 47 48 49 52 54 52 51
34 26 26 26 29 26 25 29 20 17 15 16 18 19 31 40 42 39 37 36 34 34 32 32 33 33 33 34 36 37 38 38 40 40 41 41 42 43 44 45 46 44 43 43
30 30 26 20 28 25 24 23 19 15 17 19 25 31 37 39 40 38 37 35 34 34 32 32 33 32 32 32 32 35 36 38 37 37 37 39 41 41 42 43 41 40 39 38
32 29 29 25 26 19 19 17 16 16 19 27 28 35 38 38 36 36 37 36 34 34 34 32 32 30 31 31 32 33 33 34 35 34 36 37 38 39 41 40 38 37 36 35
25 31 26 27 19 17 13 22 22 23 32 32 31 31 38 35 34 32 34 34 33 33 34 32 33 32 30 28 28 29 29 31 30 31 31 33 35 36 36 36 36 35 35 34
25 32 29 27 18 14 27 25 27 25 25 33 33 34 35 37 36 30 32 31 31 32 32 33 33 33 33 32 28 26 27 27 28 30 30 31 32 34 34 34 35 34 33 32
26 27 26 27 19 21 29 27 27 19 31 35 34 33 32 32 30 29 30 30 32 32 32 33 33 32 32 33 33 30 28 27 27 28 28 29 31 32 33 33 34 32 32 31
21 20 22 23 20 15 33 30 30 35 36 35 33 30 28 27 28 28 29 30 32 32 34 34 32 28 26 26 26 26 28 30 30 29 27 28 30 29 30 32 33 32 31 31
27 32 32 31 32 34 33 32 34 35 35 34 32 30 28 28 28 29 28 30 31 33 28 25 24 24 24 24 24 25 25 25 26 27 28 28 28 28 29 30 30 30 30 31
30 30 32 33 31 31 32 32 32 32 31 30 29 30 30 28 29 28 28 28 28 29 25 23 23 23 23 24 24 24 24 25 24 24 24 25 25 25 25 24 26 26 29 28
30 30 29 31 31 31 30 34 34 32 31 31 32 31 30 30 29 28 26 26 27 28 29 23 22 23 23 23 24 23 24 24 24 25 24 24 24 22 22 23 24 23 26 26
29 29 29 29 31 31 30 33 34 32 31 33 29 28 28 28 26 27 26 26 25 26 27 25 23 23 23 23 24 25 26 26 25 25 25 26 25 24 22 20 20 21 23 22
Lifted_Index
5 5 4 3 2 1 1 1 1 1 2 2 2 3 4 5 5 5 5 4 4 4 4 4 2 0 -2 -5 -7 -8 -7 -7 -6 -4 -3 -2 -2 -2 -1 -1 -0 0 0 -0
4 4 3 2 2 1 1 1 1 1 1 1 2 2 3 4 4 5 5 5 4 4 4 3 2 0 -3 -5 -7 -8 -7 -6 -5 -4 -3 -2 -2 -2 -1 -1 -0 0 0 -0
2 2 2 2 1 1 1 1 0 0 0 0 1 1 2 2 3 4 4 5 4 4 4 3 2 0 -3 -5 -7 -7 -7 -6 -5 -4 -3 -2 -2 -1 -1 -0 -0 -0 -0 -1
2 2 2 2 1 1 0 0 -0 -0 0 0 0 0 1 1 2 3 4 4 4 4 4 3 2 0 -3 -5 -6 -7 -7 -6 -5 -4 -3 -2 -1 -1 -0 -0 -0 -0 -0 -0
2 2 2 1 1 0 0 -0 -0 -0 0 1 0 0 1 1 1 2 3 4 4 4 3 3 2 0 -2 -5 -6 -7 -7 -6 -5 -4 -3 -2 -1 -1 -0 -0 -0 -0 -0 0
2 2 2 1 1 0 -0 -0 -0 0 0 1 0 0 0 0 1 2 3 3 3 3 2 2 1 0 -1 -4 -6 -7 -7 -6 -5 -4 -3 -2 -1 -1 -1 -0 -0 0 0 0
0 1 1 1 0 0 -0 -0 -0 -0 -0 0 -0 -0 -0 -0 0 1 2 2 2 2 1 1 1 0 -1 -3 -5 -6 -6 -5 -5 -4 -3 -2 -1 -1 -1 -0 -0 0 0 0
-0 -0 0 0 0 0 -0 0 0 -0 -0 -0 -0 -1 -1 -1 0 1 2 2 2 1 -0 -0 -0 -1 -2 -3 -5 -6 -5 -5 -4 -4 -3 -2 -1 -1 -1 -0 -0 0 0 0
-0 -0 -0 -0 0 0 -0 -0 -0 -0 -0 -0 0 -0 -1 -1 0 1 2 2 2 1 -0 -1 -1 -2 -3 -4 -5 -5 -5 -4 -4 -3 -3 -2 -1 -1 -1 -0 -0 0 0 1
0 -0 -1 -1 -0 -0 -0 -0 -0 -0 -0 -0 -0 -0 -0 -0 1 2 2 3 2 2 0 -1 -2 -3 -3 -4 -4 -4 -4 -4 -3 -3 -2 -1 -1 -1 -1 -0 0 1 1 1
0 -0 -0 -1 -1 -1 -1 -1 -0 -1 -1 -1 -0 -0 -0 1 1 2 2 2 2 1 0 -1 -2 -3 -3 -4 -3 -3 -4 -3 -2 -2 -1 -1 -0 -0 -0 0 1 1 1 1
-0 0 -0 -1 -1 -1 -1 -0 -0 -0 -0 -0 -0 -0 0 1 2 2 2 2 2 1 -0 -1 -2 -2 -3 -2 -3 -3 -3 -2 -2 -1 -1 0 0 0 0 1 1 1 2 2
1 0 0 -0 -1 -1 -1 -0 -0 -0 -0 -0 -0 -0 1 1 2 2 2 2 2 1 -0 -1 -1 -1 -1 -1 -2 -2 -2 -1 -1 -0 0 0 1 1 1 1 1 1 2 2
1 1 1 0 -0 -0 -0 -0 -0 -0 -0 -0 -0 0 1 1 1 2 3 3 2 1 0 -0 -0 -1 -1 -1 -1 -1 -1 -0 0 0 0 1 1 1 2 2 2 2 2 2
0 1 1 0 0 -0 0 -0 -0 -0 0 0 1 1 1 0 1 2 3 3 3 2 1 1 0 0 0 -0 -0 -0 -0 0 1 0 0 1 1 1 2 2 2 2 2 2
0 1 1 0 -0 0 0 0 0 1 1 1 1 1 0 0 1 2 3 3 3 3 2 2 2 2 2 1 1 1 0 1 1 0 0 0 1 1 2 2 2 2 2 2
1 1 1 0 -0 0 1 1 1 1 1 1 1 0 1 1 1 2 2 2 3 3 3 4 4 5 4 4 3 2 2 2 1 1 1 1 1 1 2 2 2 2 2 2
1 1 1 1 -0 0 1 1 0 0 0 1 1 1 2 2 2 2 2 3 3 4 5 6 7 8 8 8 7 6 5 4 4 3 3 3 3 3 3 3 3 3 3 3
1 2 1 1 0 0 0 0 -0 -0 0 1 1 2 2 3 3 3 3 4 4 5 6 7 9 10 10 11 10 9 8 7 7 6 6 7 7 6 6 6 5 5 5 4
1 1 1 1 0 -0 -0 -0 -0 0 1 1 2 3 3 3 3 3 3 5 6 7 8 8 9 10 10 11 11 11 10 10 10 9 10 10 10 10 9 9 9 8 8 7
0 1 1 0 -0 -0 -0 -0 0 1 1 2 3 3 4 3 3 3 4 6 7 8 8 9 9 9 10 11 11 10 11 11 11 12 12 12 12 12 11 11 11 11 11 10
-0 -0 -0 -0 -0 0 1 1 1 1 2 3 3 4 4 4 4 5 6 7 8 8 9 9 9 9 10 11 11 11 11 12 12 12 12 12 12 12 12 12 12 13 13 13
-0 -0 -0 -0 0 1 1 2 2 2 3 3 4 4 5 5 5 6 7 7 8 8 9 10 10 10 11 12 12 12 12 13 13 13 13 13 13 13 14 14 14 14 14 14
0 0 0 1 1 2 2 3 3 3 3 4 4 5 6 6 6 7 7 8 8 8 9 10 10 10 11 12 13 14 14 15 14 14 14 14 14 14 15 15 15 14 14 14
1 1 1 1 2 2 3 3 4 4 4 4 5 5 6 6 6 7 7 8 8 9 9 10 10 10 11 12 13 14 16 16 15 14 14 14 14 14 15 14 14 15 15 15
1 1 1 2 2 2 3 4 4 4 4 4 5 6 6 6 6 7 7 8 9 9 10 10 10 11 11 12 13 14 16 16 15 14 14 14 14 14 14 14 14 15 16 16